Regional Weather Roundup
Issued by NWS Kansas City/Pleasant Hill, MO

Home | Current Version | Previous Version | Graphics & Text | Print | Product List | Glossary Off
Versions: 1 2 3 4 5 6 7 8 9 10 11 12 13 14 15 16 17 18 19 20 21 22 23 24 25 26 27 28 29 30 31 32 33 34 35 36 37 38 39 40 41 42 43 44 45 46 47 48 49 50

000
ASUS43 KEAX 281110
RWREAX

WEATHER ROUNDUP FOR EASTERN KANSAS AND NORTHWEST MISSOURI
NATIONAL WEATHER SERVICE KANSAS CITY/PLEASANT HILL MO
600 AM CDT THU JUL 28 2016

KSZ040-057-103>105-MOZ028-029-037-043-281200-
...KANSAS CITY METROPOLITAN AREA...

CITY           SKY/WX    TMP DP  RH WIND       PRES   REMARKS
K.C. INTL      PTCLDY    70  69  97 N6        29.95R
K.C. DOWNTOWN  CLEAR     75  71  87 CALM      29.93R
LEES SUMMIT    CLEAR     73  70  90 N3        29.95R
OLATHE - IXD   CLEAR     74  71  91 W5        29.96R
OLATHE - OJC   MOCLDY    73  70  90 SW3       29.95R
LAWRENCE       CLEAR     68  67  96 CALM      29.95R FOG

$$

MOZ001>008-011>017-020>025-030>033-038>040-044>046-053-054-281200-
...NORTHERN AND CENTRAL MISSOURI...

CITY           SKY/WX    TMP DP  RH WIND       PRES   REMARKS
ST. JOSEPH     MOCLDY    69  68  96 CALM      29.96R FOG
MOSBY          PTSUNNY   70  70 100 CALM      29.93S
WHITEMAN AFB   PTCLDY    72  72 100 W1        29.92S
CLINTON        FOG       73  73 100 CALM      29.93S VSB 1/4
SEDALIA        CLEAR     73  70  90 CALM      29.94R
WARSAW         NOT AVBL
CHILLICOTHE      N/A     72  70  93 CALM      29.94R
KIRKSVILLE     CLEAR     67  65  93 W3        29.93S

$$

MOZ041-047>049-056>058-063>065-088>090-097-281200-
...EASTERN AND SOUTHERN MISSOURI...

CITY           SKY/WX    TMP DP  RH WIND       PRES   REMARKS
ST. LOUIS INTL PTCLDY    77  72  84 W5        29.89R
SPIRIT OF STL  PTCLDY    73  71  93 CALM      29.88R
COLUMBIA       MOCLDY    73  73 100 W6        29.91F FOG
JEFFERSON CITY CLEAR     73  71  93 CALM      29.91R
ROLLA          CLEAR     69  67  93 SW3       29.92R
OSAGE BEACH    CLEAR     73  72  96 CALM      29.94R
SPRINGFIELD    CLEAR     70  67  90 CALM      29.97R
BRANSON        PTCLDY    72  70  94 CALM      29.98S
JOPLIN         CLEAR     72  71  97 S6        29.96R
WEST PLAINS    PTCLDY    71  68  90 CALM      29.98R

$$

IAZ060-094-KSZ022-034>040-054-083-096-NEZ052-066-093-281200-
...KANSAS...SOUTHEAST NEBRASKA AND IOWA...

CITY           SKY/WX    TMP DP  RH WIND       PRES   REMARKS
TOPEKA         CLEAR     71  68  90 CALM      29.96R
MANHATTAN      CLOUDY    72  69  90 CALM      29.99R
EMPORIA        CLOUDY    73  71  93 CALM      29.97R
CHANUTE        CLEAR     75  73  93 W3        29.95R
WICHITA        MOCLDY    73  70  90 W5        29.99R
OMAHA          MOCLDY    71  67  87 N3        29.99R
LINCOLN        CLEAR     68  63  84 NW5       30.02R
FALLS CITY     CLOUDY    70  69  97 W6        29.97R
LAMONI         CLEAR     67  67 100 N3        29.96R
DES MOINES     PTCLDY    70  66  87 N8        29.96R

$$




USA.gov is the U.S. government's official web portal to all federal, state and local government web resources and services.